Regional Weather Roundup
Issued by NWS Albany, NY

Home | Current Version | Previous Version | Text Only | Print | Product List | Glossary On
Versions: 1 2 3 4 5 6 7 8 9 10 11 12 13 14 15 16 17 18 19 20 21 22 23 24 25 26 27 28 29 30 31 32 33 34 35 36 37 38 39 40 41 42 43 44 45 46 47 48 49 50
000
ASUS41 KALY 130510
RWRALY

NEW YORK STATE HOURLY WEATHER ROUNDUP
NATIONAL WEATHER SERVICE ALBANY NY
1200 AM EST WED DEC 13 2017

NOTE: "FAIR" INDICATES FEW OR NO CLOUDS BELOW 12,000 FEET WITH NO
SIGNIFICANT WEATHER AND/OR NO OBSTRUCTIONS TO VISIBILITY.

NYZ032-033-038>043-046>054-057>066-NYZ062>081-082-084-130600-
EAST


CITY           SKY/WX    TMP DP  RH WIND       PRES   REMARKS
ALBANY         CLOUDY    22   3  44 W25G39    29.45F WCI   5
GLENS FALLS    CLOUDY    23  16  74 W9        29.38F WCI  13
POUGHKEEPSIE   CLOUDY    26   9  48 W15G22    29.46R WCI  14
NEWBURGH       MOCLDY    25  14  63 MISG      29.47S
MONTGOMERY     MOCLDY    24  10  55 NW9G24    29.48R WCI  14
WHITE PLAINS   CLOUDY    27  10  49 W18G29    29.43R WCI  14
ISLIP          CLOUDY    33  19  56 NW16G24   29.41S WCI  23
NEW YORK CITY  MOCLDY    32  15  49 NW23G31   29.46R WCI  19
CENTRAL PARK   MOCLDY    30   8  39 W10G24    29.49R WCI  21
$$

NYZ005>009-017-018-044>046-055-056-130600-
CENTRAL


CITY           SKY/WX    TMP DP  RH WIND       PRES   REMARKS
FULTON         PTCLDY    15   7  70 SW14      29.48F WCI   0
SYRACUSE       PTCLDY    14   6  70 W17G28    29.49F WCI  -3
ROME           CLEAR     14   5  67 W7        29.49F WCI   4
ELMIRA         LGT SNOW  16   9  74 W9        29.53F WCI   4
BINGHAMTON     FLURRIES  12   3  67 W21G30    29.43F WCI  -7
$$

NYZ026>034-041>043-087-130600-
NORTH


CITY           SKY/WX    TMP DP  RH WIND       PRES   REMARKS
WATERTOWN      CLOUDY    18  14  84 N9        29.45F WCI   7
FORT DRUM      NOT AVBL
OGDENSBURG     MOCLDY    17  13  86 NW8       29.45F WCI   6
MASSENA        FLURRIES  18  16  92 W8        29.45F WCI   8
SARANAC LAKE   CLOUDY    16  13  88 SW8       29.30F WCI   5
PLATTSBURGH    CLOUDY    24  15  68 NW8       29.39F WCI  15
$$

NYZ001>004-010>016-019>021-085-130600-
WEST


CITY           SKY/WX    TMP DP  RH WIND       PRES   REMARKS
NIAGARA FALLS  CLOUDY    17   7  64 NW17G24   29.60F WCI   1
BUFFALO        LGT SNOW  12   6  77 W17G26    29.60F WCI  -5
DUNKIRK        LGT SNOW  17  10  74 NW22G37   29.66S VSB 1   WCI   0
JAMESTOWN      LGT SNOW  13  10  88 NW17G29   29.56F VSB 1   WCI  -4
WELLSVILLE     LGT SNOW  12   5  73 W16       29.46F WCI  -5
ROCHESTER      LGT SNOW  15  11  83 W15       29.54F BLWGSNOWWCI   0
PENN YAN       MOCLDY    15   3  59 W18G24    29.51F WCI  -2
$$

             KEY
       WCI = WIND CHILL INDEX
       VSB = VISIBILITY
       HX  = HEAT INDEX
$$



USA.gov is the U.S. government's official web portal to all federal, state and local government web resources and services.